KD8UYA Weather Reports


Display with metric or nautical units.
time (UTC)temp
F
wind
direction
speed
MPH
gust
MPH
rain 1hr
in
rain 24hr
in
rain mn
in
humidity
%
barometer
mb
20260508051539 47 254 1.0 3.0 0.00 0.00 0.00 74 1011.6
20260508050049 48 259 0.0 4.0 0.00 0.00 0.00 74 1011.5
20260508044533 48 262 1.0 6.0 0.00 0.00 0.00 74 1011.6
20260508043031 48 263 1.0 6.0 0.00 0.00 0.00 73 1011.5
20260508041529 48 282 2.0 7.0 0.00 0.00 0.00 73 1011.6
20260508040041 47 260 2.0 6.0 0.00 0.00 0.00 73 1011.6
20260508034537 47 272 2.0 7.0 0.00 0.00 0.00 72 1011.7
20260508033025 47 266 1.0 7.0 0.00 0.00 0.00 73 1011.8
20260508031524 45 225 1.0 4.0 0.00 0.00 0.00 76 1011.7
20260508030025 43 299 0.0 0.0 0.00 0.00 0.00 81 1011.8
20260508024526 43 299 0.0 0.0 0.00 0.00 0.00 81 1011.8
20260508023024 43 299 0.0 0.0 0.00 0.00 0.00 79 1011.7
20260508021523 44 299 0.0 0.0 0.00 0.00 0.00 78 1011.5
20260508020023 44 299 0.0 0.0 0.00 0.00 0.00 77 1011.5
20260508014522 44 299 0.0 0.0 0.00 0.00 0.00 74 1011.3
20260508013021 45 299 0.0 0.0 0.00 0.00 0.00 72 1011.4
20260508011522 46 299 0.0 0.0 0.00 0.00 0.00 68 1011.2
20260508010021 48 299 0.0 0.0 0.00 0.00 0.00 63 1011.1
20260508004521 50 299 0.0 0.0 0.00 0.00 0.00 59 1011.1
20260508003020 51 299 0.0 2.0 0.00 0.00 0.00 59 1011.1
20260508001620 51 328 3.0 8.0 0.00 0.00 0.00 52 1010.9
20260508000018 52 315 4.0 9.0 0.00 0.00 0.00 52 1010.8
20260507234530 53 284 3.0 11.0 0.00 0.00 0.00 52 1010.7
20260507233022 53 309 2.0 11.0 0.00 0.00 0.00 51 1010.7
20260507231517 53 277 5.0 14.0 0.00 0.00 0.00 50 1010.6
20260507230018 54 313 4.0 13.0 0.00 0.00 0.00 49 1010.8
20260507224515 54 305 7.0 16.0 0.00 0.00 0.00 49 1010.8
20260507223015 55 274 5.0 13.0 0.00 0.00 0.00 49 1010.7
20260507221513 54 330 7.0 14.0 0.00 0.00 0.00 49 1010.8
20260507220013 54 294 3.0 12.0 0.00 0.00 0.00 52 1010.7
20260507214512 53 286 3.0 14.0 0.00 0.00 0.00 56 1010.6
20260507213020 53 347 4.0 18.0 0.00 0.00 0.00 57 1010.5
20260507211511 53 311 4.0 13.0 0.00 0.00 0.00 58 1010.5
20260507210011 53 331 8.0 15.0 0.00 0.00 0.00 61 1010.3
20260507204510 53 276 6.0 11.0 0.00 0.00 0.00 61 1010.2
20260507203009 53 224 6.0 15.0 0.00 0.00 0.00 57 1010.0
20260507201508 54 290 6.0 14.0 0.00 0.00 0.00 54 1010.0
20260507200010 53 246 6.0 15.0 0.00 0.00 0.00 57 1009.9
20260507194521 54 253 5.0 16.0 0.00 0.00 0.00 52 1010.0
20260507193007 54 315 5.0 12.0 0.00 0.00 0.00 55 1010.2
20260507191504 54 319 6.0 12.0 0.00 0.00 0.00 53 1010.2
20260507190116 54 309 2.0 11.0 0.00 0.00 0.00 57 1010.2
20260507184502 54 264 5.0 13.0 0.00 0.00 0.00 54 1010.4
20260507183116 54 288 4.0 11.0 0.00 0.00 0.00 56 1010.4
20260507181601 55 284 5.0 15.0 0.00 0.00 0.00 55 1010.5
20260507180104 53 261 7.0 15.0 0.00 0.00 0.00 58 1010.5
20260507174603 53 243 5.0 11.0 0.00 0.00 0.00 57 1010.5
20260507173103 54 245 3.0 10.0 0.00 0.00 0.00 58 1010.6
20260507171553 53 287 6.0 15.0 0.00 0.00 0.00 57 1010.6
20260507170053 53 318 5.0 12.0 0.00 0.00 0.00 55 1010.7
20260507164625 53 220 5.0 10.0 0.00 0.00 0.00 57 1010.7
20260507163053 53 269 3.0 13.0 0.00 0.00 0.00 60 1010.7
20260507161555 53 236 5.0 10.0 0.00 0.00 0.00 56 1010.8
20260507160046 53 252 5.0 11.0 0.00 0.00 0.00 56 1010.8
20260507154542 52 249 5.0 10.0 0.00 0.00 0.00 58 1010.9
20260507153042 51 288 3.0 12.0 0.00 0.00 0.00 61 1010.9
20260507151538 52 268 4.0 10.0 0.00 0.00 0.00 62 1011.0
20260507150038 51 282 2.0 10.0 0.00 0.00 0.00 64 1011.2
20260507144537 51 336 3.0 9.0 0.00 0.00 0.00 63 1011.1
20260507143037 51 298 4.0 9.0 0.00 0.00 0.00 61 1011.0
20260507141533 51 277 2.0 7.0 0.00 0.00 0.00 60 1011.2
20260507140030 50 5 1.0 7.0 0.00 0.00 0.00 60 1011.2
20260507134526 50 334 1.0 5.0 0.00 0.00 0.00 68 1011.5
20260507133026 49 304 2.0 9.0 0.00 0.00 0.00 70 1011.5
20260507131520 47 300 3.0 6.0 0.00 0.00 0.00 75 1011.7
20260507130017 47 308 2.0 8.0 0.00 0.00 0.00 79 1011.7
20260507124519 46 259 2.0 7.0 0.00 0.00 0.00 80 1011.7
20260507123014 46 274 1.0 7.0 0.00 0.00 0.00 81 1011.8
20260507121514 45 247 3.0 6.0 0.00 0.00 0.00 81 1011.5
20260507120009 45 223 0.0 6.0 0.00 0.01 0.00 82 1011.4
20260507114506 44 226 1.0 7.0 0.00 0.01 0.00 84 1011.6
20260507113015 43 277 1.0 5.0 0.00 0.01 0.00 85 1011.5
20260507111506 42 240 0.0 3.0 0.00 0.01 0.00 88 1011.4
20260507110007 41 240 0.0 0.0 0.00 0.01 0.00 90 1011.4
20260507104502 40 240 0.0 0.0 0.00 0.01 0.00 90 1011.2
20260507103001 41 240 0.0 0.0 0.00 0.01 0.00 87 1011.1
20260507101602 42 240 0.0 0.0 0.00 0.01 0.00 87 1010.9
20260507100120 42 240 0.0 0.0 0.00 0.01 0.00 86 1011.1
20260507094607 42 240 0.0 3.0 0.00 0.05 0.00 85 1011.0
20260507093057 42 236 0.0 3.0 0.00 0.05 0.00 86 1011.0
20260507091622 42 236 0.0 0.0 0.00 0.05 0.00 88 1011.1
20260507090055 42 236 0.0 0.0 0.00 0.05 0.00 87 1011.1
20260507084605 42 236 0.0 0.0 0.00 0.08 0.00 88 1011.2
20260507083053 42 236 0.0 0.0 0.00 0.08 0.00 90 1011.2
20260507081558 41 177 0.0 0.0 0.00 0.08 0.00 91 1011.3
20260507080051 41 177 0.0 0.0 0.00 0.08 0.00 90 1011.3
20260507074556 41 177 0.0 0.0 0.00 0.14 0.00 90 1011.2
20260507073052 41 164 0.0 0.0 0.00 0.14 0.00 91 1011.3
20260507071548 40 164 0.0 0.0 0.00 0.14 0.00 91 1011.3
20260507070048 40 163 0.0 0.0 0.00 0.14 0.00 90 1011.4
20260507064546 41 163 0.0 0.0 0.00 0.20 0.00 89 1011.5
20260507063044 41 163 0.0 0.0 0.00 0.20 0.00 89 1011.6
20260507061540 42 163 0.0 0.0 0.00 0.20 0.00 88 1011.7
20260507060043 42 163 0.0 3.0 0.00 0.20 0.00 87 1011.7
20260507054538 42 140 0.0 4.0 0.00 0.28 0.00 86 1011.9
20260507053033 42 88 0.0 0.0 0.00 0.28 0.00 87 1011.9